Temp
9 9 9 8 8 8 8 8 8 8 8 8 7 7 7 7 7 7 7 7 7 7 7 7 7 7 7 7 7 7 7 7 7 7 7 7 7 7 7 7 7 6 6 6 6 6 6 6 6 6 6 6 6 6 6 6 5 5 5 5 5 5 5 5 5 5 5 5 5
9 9 9 9 8 8 8 8 8 8 8 7 7 7 7 7 7 7 7 7 7 7 7 7 7 7 7 7 7 7 7 7 7 7 7 7 7 7 7 7 6 6 6 6 6 6 6 6 6 6 6 6 6 6 5 5 5 5 5 5 5 5 5 5 5 5 5 5 5
9 9 9 8 8 8 8 8 8 8 8 7 7 7 7 7 7 7 7 7 7 7 7 6 6 6 6 6 6 6 6 6 6 6 6 6 6 6 6 6 6 6 6 6 6 6 6 6 6 6 6 6 5 5 5 5 5 5 5 5 5 5 5 5 5 5 5 5 5
9 9 8 8 8 8 8 8 8 7 7 7 7 7 7 7 7 7 6 6 6 6 6 6 6 6 6 6 6 6 6 6 6 6 6 6 6 6 6 6 6 6 6 6 5 5 6 6 6 6 5 5 5 5 5 5 5 5 5 5 5 5 5 5 5 5 5 5 4
8 8 8 8 8 8 8 8 7 7 7 7 7 7 7 7 7 6 6 6 6 6 6 6 6 6 6 6 6 6 6 6 6 6 6 6 6 6 6 6 6 6 6 6 5 5 5 5 5 5 5 5 5 5 5 5 5 5 5 5 5 5 5 5 5 5 4 4 4
8 8 8 8 8 8 8 8 7 7 7 7 7 7 7 7 6 6 6 6 6 6 6 6 6 6 6 6 6 6 6 6 6 6 6 6 6 6 6 6 6 6 6 5 5 5 5 5 5 5 5 5 5 5 5 4 4 4 4 4 4 4 4 4 4 4 4 4 4
8 8 8 8 8 8 8 8 8 7 7 7 7 7 7 6 6 6 6 6 6 6 6 6 6 6 6 6 6 6 6 6 6 6 6 6 6 6 6 6 6 6 6 5 5 5 5 5 5 5 5 5 5 5 4 4 4 4 4 4 4 4 4 4 4 4 4 4 4
8 8 8 8 8 8 8 8 8 7 7 7 7 7 6 6 6 6 6 6 6 6 6 6 6 6 6 6 6 6 6 6 6 6 6 6 6 6 6 6 6 6 6 5 5 5 5 5 5 5 5 5 5 4 4 4 4 4 4 4 4 4 4 4 4 4 4 4 4
8 8 8 8 8 8 8 8 8 7 7 7 7 6 6 6 6 6 6 6 6 6 6 6 6 6 6 6 6 6 6 6 6 6 6 6 6 6 5 5 5 5 5 5 5 5 5 5 5 5 5 5 5 4 4 4 4 4 4 4 4 4 4 4 4 4 4 4 3
7 7 7 8 8 8 8 7 7 7 7 7 6 6 6 6 6 6 6 6 6 6 6 6 6 6 6 6 6 6 6 6 6 6 6 6 5 5 5 5 5 5 5 5 5 5 5 4 4 5 5 5 5 4 4 4 4 4 4 3 3 3 3 3 3 3 3 3 3
7 7 7 7 7 7 7 7 7 7 7 6 6 6 6 6 6 6 6 6 6 6 6 5 5 5 6 6 6 6 6 5 5 5 5 5 5 5 5 5 5 5 5 5 5 5 5 4 4 4 4 4 4 4 4 4 4 4 3 3 3 3 3 3 3 3 3 3 3
7 7 7 7 7 7 7 7 7 7 6 6 6 6 6 6 6 6 6 6 6 5 5 5 5 5 5 5 5 5 5 5 5 5 5 5 5 5 5 5 5 4 4 4 4 4 4 4 4 4 4 4 4 4 4 4 4 4 3 3 3 3 3 3 3 3 3 3 3
7 7 7 7 7 7 7 7 7 6 6 6 6 6 6 6 6 6 6 6 5 5 5 5 5 5 5 5 5 5 5 5 5 5 5 5 5 5 5 4 4 4 4 4 4 4 4 4 4 4 4 4 4 4 4 4 4 4 3 3 3 3 3 3 3 3 3 3 3
7 7 7 6 6 7 7 7 6 6 6 6 6 6 6 5 6 6 6 6 5 5 5 5 5 5 5 5 5 5 5 5 5 5 5 5 4 4 4 4 4 4 4 4 4 4 4 4 4 4 3 3 3 3 3 3 3 3 3 3 3 3 3 3 3 3 3 3 3
6 6 6 6 6 6 6 6 6 6 6 6 6 6 6 6 6 6 6 6 6 5 5 5 5 5 5 5 5 5 5 5 5 5 4 4 4 4 4 4 4 4 3 3 3 3 3 3 3 3 3 3 3 3 3 3 3 3 3 3 3 3 3 2 2 2 2 2 2
6 6 6 6 6 6 6 6 6 6 6 6 6 6 6 6 6 6 6 6 6 6 5 5 5 5 5 5 5 5 5 4 4 4 4 4 4 4 4 4 4 3 3 3 3 3 3 3 3 3 3 3 3 3 3 3 3 3 3 3 3 2 2 2 2 2 2 2 2
6 6 6 6 6 6 6 6 6 6 6 6 6 5 6 6 6 6 6 6 6 6 5 5 5 5 5 5 5 5 4 4 4 4 4 4 4 4 4 3 3 3 3 3 3 3 3 3 3 2 2 2 2 2 2 2 2 2 2 2 2 2 2 2 2 2 2 2 2
6 6 6 6 6 6 6 6 6 6 6 6 5 5 5 5 5 5 6 6 6 5 5 5 5 5 5 5 5 5 5 4 4 4 4 4 4 4 3 3 3 3 3 3 3 3 2 2 2 2 2 2 2 2 2 2 2 2 2 2 2 2 2 2 2 2 2 2 2
6 6 6 6 6 6 6 6 6 5 5 5 6 6 6 5 5 5 5 5 5 5 5 5 5 5 5 5 5 5 5 5 4 4 4 4 4 4 4 3 3 3 3 3 2 2 2 2 2 2 2 2 2 2 2 2 2 2 2 2 2 1 1 1 1 1 1 1 1
7 7 6 6 6 6 6 6 6 5 5 6 6 6 6 5 5 5 5 5 5 5 5 5 5 5 5 5 5 5 5 5 5 4 4 4 4 4 4 4 3 3 3 3 2 2 2 2 2 2 2 2 2 2 2 1 1 1 1 1 1 1 1 1 1 1 1 1 1
7 7 7 6 6 6 6 6 6 6 6 6 6 6 6 6 5 5 5 5 5 5 5 5 5 5 5 5 5 5 5 5 5 5 4 4 4 4 4 4 4 3 3 3 3 2 2 2 2 2 2 2 1 1 1 1 1 1 1 1 1 1 1 1 1 1 1 1 1
7 7 7 6 6 6 6 6 6 6 6 6 6 6 6 6 6 5 5 5 5 5 5 5 5 5 5 5 5 5 5 5 5 5 4 4 4 4 4 4 4 4 3 3 3 3 2 2 2 2 2 2 1 1 1 1 1 1 1 1 1 1 1 1 1 1 1 1 1
7 7 6 6 6 6 6 6 6 6 6 6 6 6 6 6 6 5 5 5 5 5 5 5 5 5 5 5 5 5 5 5 5 4 4 4 4 4 4 4 4 4 4 3 3 3 3 2 2 2 2 2 2 1 1 1 1 1 1 1 1 0 0 0 0 0 0 0 1
6 6 6 6 6 6 6 6 6 6 6 6 6 6 6 6 6 6 5 5 5 5 5 5 5 5 5 5 5 5 5 5 5 4 4 4 4 4 4 4 4 4 4 3 3 3 3 2 2 2 2 2 2 1 1 1 1 1 1 1 1 0 0 0 0 0 0 0 0
6 6 6 6 6 6 6 6 6 6 6 6 6 6 6 6 6 6 6 5 5 5 5 5 5 5 5 5 5 5 5 5 5 4 4 4 4 4 4 4 4 4 4 3 3 3 3 2 2 2 2 2 2 1 1 1 1 1 1 1 1 0 0 0 0 0 0 0 0
6 6 6 6 6 6 6 6 6 6 6 6 6 6 6 6 6 6 6 6 5 5 5 5 5 5 5 5 5 5 5 5 4 4 4 4 4 4 4 4 4 4 4 3 3 3 2 2 2 2 2 2 2 1 1 1 1 1 1 1 1 0 0 0 0 0 -0 -0 -0
6 6 6 6 6 6 6 6 6 6 6 5 5 5 5 5 5 5 5 5 5 5 5 5 5 5 5 5 5 5 5 5 4 4 4 4 4 4 4 4 4 4 4 3 3 3 2 2 2 2 2 2 2 2 1 1 1 1 0 0 0 0 0 0 0 0 -0 -0 -0
6 5 5 5 5 5 5 5 5 5 5 5 5 5 5 5 5 5 5 5 5 5 5 5 5 5 5 5 5 5 5 4 4 4 4 4 4 4 4 4 4 4 3 3 3 3 2 2 2 2 2 2 2 2 2 1 1 1 0 0 0 0 0 0 0 0 -0 -0 -0
5 5 5 5 5 5 5 5 5 5 5 5 5 5 5 5 5 5 5 5 5 5 5 5 5 5 5 5 5 5 4 4 4 4 4 4 4 4 4 4 4 4 3 3 3 3 3 2 2 2 2 2 2 2 2 2 2 1 1 0 0 0 0 0 0 -0 -0 -0 -1
5 5 5 5 5 5 5 5 5 5 5 5 5 5 5 5 5 5 5 5 5 4 4 4 4 4 4 4 4 4 4 4 4 4 4 4 4 4 3 3 3 3 3 3 3 3 2 2 2 2 2 1 1 1 2 2 2 1 1 1 0 0 0 -0 -0 -0 -0 -0 -0
5 5 5 5 5 5 5 5 5 5 5 5 5 5 5 5 4 4 4 4 4 4 4 4 4 4 4 4 4 4 4 4 4 4 4 3 3 3 3 3 3 3 3 3 3 2 2 2 2 2 1 1 1 1 1 1 1 1 1 1 1 1 0 0 0 -0 -0 -0 -0
5 5 5 5 5 5 5 5 4 4 4 4 4 4 4 4 4 4 4 4 4 3 3 3 4 4 4 4 4 4 3 3 3 3 3 3 3 3 3 3 3 3 3 3 3 2 2 2 2 1 1 1 1 1 1 1 1 1 1 1 1 1 1 0 0 0 -0 -0 -0
4 4 4 4 4 4 4 4 4 4 4 4 4 4 4 4 4 4 3 3 3 3 3 3 3 3 3 3 3 3 3 3 3 3 3 3 3 3 3 3 3 3 3 3 2 2 2 2 1 1 1 1 1 1 0 0 0 1 1 1 1 1 1 0 0 -0 -0 -0 -0
4 4 4 4 4 4 4 4 4 4 4 4 4 4 4 4 4 4 3 3 3 3 3 3 3 3 3 3 3 3 3 3 3 3 3 3 3 3 3 3 3 3 3 3 2 2 2 2 1 1 1 1 1 0 0 0 0 0 0 0 0 0 0 0 -0 -0 -0 -1 -1
4 4 4 4 4 4 4 4 4 4 4 4 4 4 4 4 4 3 3 3 3 3 3 3 3 3 3 3 3 3 3 3 3 3 3 3 3 3 3 3 3 3 3 3 2 2 2 2 1 1 1 1 1 0 0 0 0 0 0 0 0 0 0 0 -0 -0 -1 -1 -1
4 4 4 4 4 4 4 4 4 4 4 4 4 4 3 3 3 3 3 3 3 3 3 3 3 3 3 3 3 3 3 3 3 3 3 3 3 3 3 3 3 3 3 2 2 2 2 2 1 1 1 1 0 0 0 0 0 0 0 0 0 -0 -0 -0 -0 -1 -1 -1 -1
4 4 4 4 4 4 4 3 3 4 4 3 3 3 3 3 3 3 3 3 3 3 3 3 3 3 3 3 3 3 3 3 3 3 3 3 3 3 3 3 3 3 3 2 2 2 2 2 1 1 1 0 0 0 0 0 0 0 0 0 -0 -0 -0 -0 -1 -1 -1 -1 -1
4 4 4 4 4 3 3 3 3 3 3 3 3 3 3 3 3 3 3 3 3 3 3 3 3 3 3 3 3 3 3 3 3 3 3 3 3 3 3 3 3 3 2 2 2 2 2 2 1 1 1 0 0 0 0 0 0 0 0 -0 -0 -0 -0 -1 -1 -1 -1 -1 -1
4 4 4 4 4 3 3 3 3 3 3 3 3 3 3 3 3 3 3 3 3 3 3 3 3 3 3 3 3 3 3 3 3 3 3 3 2 2 2 2 2 2 2 2 2 2 2 2 1 1 1 0 0 0 0 -0 -0 0 -0 -0 -0 -0 -0 -1 -1 -1 -1 -1 -1
4 4 4 4 4 4 4 4 4 4 4 4 3 3 3 3 3 3 3 3 3 3 3 3 3 3 2 2 3 3 3 3 3 2 2 2 2 2 2 2 2 2 2 2 2 2 2 1 1 1 0 0 0 -0 -0 -0 -0 -0 -0 -0 -0 -0 -0 -0 -1 -1 -1 -1 -2
4 4 4 4 4 4 4 4 4 4 4 4 4 4 3 3 3 3 3 3 3 3 3 3 3 3 2 2 3 3 3 3 3 2 2 2 2 2 2 2 2 2 2 2 2 2 2 1 1 1 0 0 -0 -0 -0 -0 -0 -0 -0 0 -0 -0 -0 -0 -1 -1 -1 -1 -2
Height
1504 1504 1504 1504 1504 1504 1504 1504 1504 1504 1504 1504 1504 1504 1504 1504 1504 1504 1504 1504 1504 1504 1504 1504 1504 1504 1505 1505 1505 1505 1505 1505 1505 1505 1505 1505 1505 1505 1505 1505 1505 1505 1505 1504 1504 1504 1504 1504 1504 1504 1504 1504 1503 1503 1503 1503 1503 1503 1503 1503 1502 1502 1502 1502 1502 1502 1501 1501 1501
1503 1503 1503 1503 1503 1503 1503 1503 1503 1503 1503 1503 1503 1503 1503 1503 1503 1503 1503 1503 1503 1503 1503 1503 1504 1504 1504 1504 1504 1504 1504 1504 1504 1504 1504 1504 1504 1504 1504 1504 1504 1504 1504 1503 1503 1503 1503 1503 1503 1502 1502 1502 1502 1502 1502 1502 1502 1502 1502 1501 1501 1501 1501 1501 1501 1501 1500 1500 1500
1502 1502 1502 1502 1502 1502 1502 1502 1502 1502 1502 1502 1502 1502 1502 1502 1502 1502 1502 1502 1502 1502 1502 1503 1503 1503 1503 1503 1503 1503 1503 1503 1503 1503 1503 1503 1503 1503 1503 1503 1503 1503 1502 1502 1502 1502 1501 1501 1501 1501 1501 1501 1501 1501 1501 1501 1501 1501 1501 1501 1500 1500 1500 1500 1499 1499 1499 1499 1498
1501 1501 1501 1501 1501 1501 1501 1501 1501 1501 1501 1501 1501 1501 1501 1501 1501 1501 1501 1501 1501 1501 1501 1501 1501 1501 1502 1502 1502 1502 1502 1502 1502 1502 1501 1501 1501 1501 1501 1501 1501 1501 1501 1501 1501 1501 1500 1500 1500 1500 1500 1500 1500 1500 1500 1500 1500 1500 1499 1499 1499 1499 1499 1498 1498 1498 1498 1497 1497
1500 1500 1500 1500 1499 1499 1499 1499 1499 1499 1499 1499 1500 1500 1500 1500 1500 1500 1500 1500 1500 1500 1500 1500 1500 1500 1501 1501 1501 1501 1501 1501 1501 1501 1501 1500 1500 1500 1500 1500 1500 1500 1500 1500 1500 1499 1499 1499 1499 1499 1499 1499 1499 1499 1499 1498 1498 1498 1498 1498 1498 1498 1497 1497 1497 1497 1496 1496 1496
1498 1498 1498 1498 1498 1498 1498 1498 1498 1498 1498 1498 1498 1498 1498 1498 1498 1498 1498 1498 1498 1499 1499 1499 1499 1499 1499 1499 1499 1499 1499 1499 1499 1499 1499 1499 1499 1499 1499 1499 1499 1499 1499 1499 1498 1498 1498 1498 1498 1498 1498 1498 1497 1497 1497 1497 1497 1497 1497 1497 1496 1496 1496 1496 1496 1496 1495 1495 1495
1497 1497 1497 1497 1497 1496 1496 1496 1496 1496 1496 1496 1496 1496 1496 1497 1497 1497 1497 1497 1497 1497 1497 1497 1497 1497 1498 1498 1498 1498 1498 1498 1498 1498 1498 1498 1498 1497 1497 1497 1497 1497 1497 1497 1497 1497 1496 1496 1496 1496 1496 1496 1496 1496 1496 1496 1496 1496 1496 1496 1495 1495 1495 1495 1494 1494 1494 1493 1493
1496 1496 1496 1495 1495 1495 1495 1495 1495 1495 1495 1495 1495 1495 1495 1495 1495 1495 1495 1495 1496 1496 1496 1496 1496 1496 1496 1496 1496 1496 1496 1496 1496 1496 1496 1496 1496 1496 1496 1496 1496 1496 1496 1496 1496 1496 1495 1495 1495 1495 1495 1495 1495 1495 1495 1495 1495 1495 1494 1494 1494 1494 1493 1493 1493 1493 1492 1492 1492
1494 1494 1494 1494 1494 1494 1493 1493 1493 1493 1493 1493 1493 1493 1493 1493 1493 1494 1494 1494 1494 1494 1494 1494 1494 1494 1494 1494 1495 1495 1495 1495 1495 1495 1495 1495 1495 1495 1495 1494 1494 1494 1494 1494 1494 1494 1494 1494 1494 1494 1494 1494 1494 1494 1494 1493 1493 1493 1493 1493 1493 1492 1492 1492 1492 1491 1491 1491 1490
1493 1493 1492 1492 1492 1492 1492 1492 1492 1492 1492 1492 1492 1492 1492 1492 1492 1492 1492 1492 1492 1492 1492 1492 1492 1492 1493 1493 1493 1493 1493 1493 1493 1493 1493 1493 1493 1493 1493 1493 1493 1493 1492 1492 1493 1493 1493 1492 1492 1492 1492 1492 1492 1492 1492 1492 1492 1492 1492 1491 1491 1491 1491 1491 1490 1490 1490 1489 1489
1491 1491 1491 1491 1491 1491 1491 1491 1491 1491 1491 1491 1491 1491 1491 1491 1491 1491 1491 1491 1491 1491 1491 1491 1491 1491 1491 1491 1491 1491 1491 1491 1491 1491 1491 1491 1491 1491 1491 1491 1491 1491 1491 1491 1491 1491 1491 1491 1491 1491 1491 1491 1491 1491 1491 1491 1491 1491 1491 1490 1490 1490 1489 1489 1489 1488 1488 1488 1487
1490 1490 1490 1490 1490 1490 1490 1490 1490 1490 1490 1490 1490 1490 1490 1490 1490 1490 1490 1490 1490 1490 1490 1490 1490 1490 1490 1490 1490 1489 1489 1489 1489 1489 1490 1490 1490 1490 1490 1490 1489 1489 1489 1489 1489 1489 1489 1489 1489 1489 1489 1489 1489 1489 1489 1489 1489 1489 1489 1489 1489 1488 1488 1488 1487 1487 1486 1486 1486
1489 1489 1489 1489 1489 1489 1489 1489 1489 1489 1489 1489 1489 1489 1489 1488 1488 1488 1488 1488 1488 1488 1488 1488 1488 1488 1488 1488 1488 1488 1488 1488 1488 1488 1488 1488 1488 1488 1488 1488 1488 1487 1487 1487 1487 1487 1487 1487 1487 1487 1487 1487 1487 1487 1487 1487 1487 1487 1487 1487 1487 1487 1486 1486 1486 1485 1485 1485 1484
1488 1488 1488 1488 1488 1488 1488 1488 1488 1488 1488 1488 1488 1487 1487 1487 1487 1487 1487 1487 1487 1487 1487 1487 1487 1487 1487 1486 1486 1486 1486 1486 1486 1486 1486 1486 1486 1486 1486 1486 1486 1486 1486 1486 1485 1485 1485 1485 1485 1486 1486 1486 1485 1485 1485 1485 1485 1485 1485 1485 1485 1485 1485 1484 1484 1483 1483 1483 1483
1486 1487 1487 1487 1487 1487 1487 1487 1487 1487 1487 1487 1486 1486 1486 1486 1486 1486 1486 1486 1486 1486 1486 1486 1486 1485 1485 1485 1485 1485 1485 1485 1485 1484 1484 1484 1484 1484 1484 1484 1484 1484 1484 1484 1484 1483 1483 1483 1483 1483 1484 1484 1484 1484 1483 1483 1483 1483 1483 1483 1483 1483 1483 1482 1482 1481 1481 1481 1481
1485 1486 1486 1486 1486 1486 1486 1486 1486 1486 1486 1486 1486 1485 1485 1485 1485 1485 1484 1484 1484 1484 1484 1484 1484 1484 1484 1484 1484 1483 1483 1483 1483 1483 1483 1483 1482 1482 1482 1482 1482 1482 1482 1482 1482 1482 1481 1481 1481 1481 1481 1482 1482 1482 1482 1482 1481 1481 1481 1481 1481 1481 1481 1480 1480 1480 1480 1479 1479
1484 1484 1484 1485 1485 1485 1485 1485 1485 1485 1485 1485 1484 1484 1484 1484 1484 1484 1483 1483 1483 1483 1483 1483 1483 1483 1483 1482 1482 1482 1482 1482 1482 1482 1481 1481 1481 1481 1481 1481 1481 1481 1480 1480 1480 1480 1480 1480 1480 1480 1480 1480 1480 1480 1480 1480 1480 1480 1480 1480 1479 1479 1479 1479 1478 1478 1478 1478 1477
1483 1483 1483 1483 1483 1484 1484 1484 1484 1483 1483 1483 1483 1483 1483 1483 1483 1483 1482 1482 1482 1482 1482 1482 1482 1482 1481 1481 1481 1481 1481 1481 1481 1481 1480 1480 1480 1480 1479 1479 1479 1479 1479 1478 1478 1478 1478 1478 1478 1478 1478 1478 1478 1478 1478 1478 1478 1478 1478 1478 1477 1477 1477 1477 1476 1476 1476 1476 1476
1481 1482 1482 1482 1482 1482 1482 1482 1482 1482 1482 1482 1482 1482 1482 1482 1482 1481 1481 1481 1481 1481 1481 1481 1481 1481 1481 1480 1480 1480 1480 1480 1480 1479 1479 1479 1479 1478 1478 1478 1478 1478 1477 1477 1477 1477 1476 1476 1476 1476 1476 1476 1476 1476 1476 1476 1476 1476 1476 1476 1476 1476 1475 1475 1475 1474 1474 1474 1474
1480 1480 1481 1481 1481 1481 1481 1481 1481 1481 1481 1481 1481 1481 1481 1481 1481 1480 1480 1480 1480 1480 1480 1480 1480 1479 1479 1479 1479 1479 1478 1478 1478 1478 1478 1478 1477 1477 1477 1477 1477 1476 1476 1476 1476 1476 1475 1475 1475 1475 1475 1474 1474 1474 1474 1474 1474 1474 1474 1474 1474 1474 1473 1473 1473 1473 1472 1472 1472
1479 1479 1479 1479 1479 1479 1479 1479 1479 1479 1479 1479 1479 1479 1479 1479 1479 1479 1479 1479 1478 1478 1478 1478 1478 1478 1478 1478 1477 1477 1477 1477 1476 1476 1476 1476 1476 1476 1476 1476 1475 1475 1475 1475 1475 1474 1474 1474 1474 1473 1473 1473 1473 1473 1472 1472 1472 1472 1472 1472 1472 1472 1471 1471 1471 1471 1471 1471 1470
1477 1478 1478 1478 1478 1478 1478 1478 1478 1477 1477 1477 1477 1477 1477 1477 1478 1477 1477 1477 1477 1477 1476 1476 1476 1476 1476 1476 1476 1476 1476 1475 1475 1475 1475 1475 1474 1474 1474 1474 1474 1473 1473 1473 1473 1473 1473 1472 1472 1472 1471 1471 1471 1471 1471 1471 1471 1471 1470 1470 1470 1470 1470 1470 1469 1469 1469 1469 1468
1476 1476 1476 1476 1476 1476 1476 1476 1476 1476 1476 1476 1476 1476 1476 1476 1476 1476 1476 1476 1475 1475 1475 1475 1475 1475 1475 1475 1474 1474 1474 1474 1474 1473 1473 1473 1473 1472 1472 1472 1472 1471 1471 1471 1471 1471 1471 1471 1471 1470 1470 1470 1470 1470 1469 1469 1469 1469 1469 1468 1468 1468 1468 1468 1467 1467 1467 1467 1467
1474 1474 1474 1474 1474 1474 1474 1474 1474 1474 1474 1474 1474 1474 1474 1474 1474 1474 1474 1474 1474 1473 1473 1473 1473 1473 1473 1473 1473 1472 1472 1472 1472 1472 1472 1471 1471 1471 1471 1470 1470 1470 1470 1470 1470 1469 1469 1469 1469 1468 1468 1468 1468 1468 1468 1467 1467 1467 1467 1467 1466 1466 1466 1466 1466 1466 1466 1465 1465
1472 1472 1472 1472 1472 1472 1472 1472 1472 1472 1472 1473 1472 1472 1472 1472 1472 1472 1472 1472 1472 1471 1471 1471 1471 1471 1471 1471 1471 1471 1471 1471 1471 1470 1470 1470 1470 1469 1469 1469 1469 1468 1468 1468 1468 1468 1467 1467 1466 1466 1466 1466 1466 1466 1466 1466 1466 1465 1465 1465 1465 1465 1464 1464 1464 1464 1464 1463 1463
1470 1470 1470 1470 1470 1471 1471 1471 1471 1471 1471 1471 1471 1470 1470 1470 1470 1470 1470 1470 1470 1469 1469 1469 1469 1469 1469 1469 1469 1469 1469 1469 1469 1468 1468 1468 1468 1468 1467 1467 1467 1467 1467 1467 1466 1466 1466 1465 1465 1464 1464 1464 1464 1464 1464 1464 1464 1463 1463 1463 1463 1462 1462 1462 1462 1462 1462 1462 1461
1468 1468 1468 1468 1468 1468 1468 1469 1469 1469 1468 1468 1468 1468 1468 1468 1468 1468 1467 1467 1467 1467 1467 1467 1467 1467 1467 1467 1467 1467 1467 1467 1466 1466 1466 1466 1466 1466 1466 1466 1466 1466 1466 1465 1465 1465 1464 1464 1463 1463 1462 1462 1462 1462 1462 1462 1462 1462 1461 1461 1461 1461 1461 1461 1461 1461 1460 1460 1460
1466 1466 1466 1466 1466 1466 1466 1466 1466 1466 1466 1466 1466 1466 1466 1466 1466 1466 1466 1466 1465 1465 1465 1465 1465 1465 1465 1465 1465 1465 1465 1465 1464 1464 1464 1464 1464 1464 1464 1464 1464 1464 1464 1464 1463 1463 1463 1462 1462 1461 1461 1460 1460 1460 1460 1461 1461 1460 1460 1459 1459 1459 1459 1459 1459 1459 1459 1458 1458
1464 1464 1464 1464 1465 1465 1465 1465 1465 1465 1465 1465 1464 1464 1464 1464 1464 1464 1464 1463 1463 1463 1463 1463 1463 1463 1462 1462 1462 1462 1462 1462 1462 1462 1462 1462 1462 1462 1462 1462 1462 1462 1462 1462 1461 1461 1461 1461 1460 1460 1459 1459 1458 1458 1458 1458 1458 1458 1458 1458 1457 1457 1457 1457 1457 1457 1457 1457 1456
1462 1462 1462 1462 1462 1463 1463 1463 1463 1463 1463 1462 1462 1462 1462 1462 1462 1462 1461 1461 1461 1461 1461 1461 1461 1461 1461 1461 1461 1461 1460 1460 1460 1460 1460 1460 1460 1460 1460 1460 1460 1460 1460 1460 1460 1459 1459 1459 1458 1458 1458 1457 1456 1456 1456 1456 1456 1456 1456 1456 1456 1456 1456 1455 1455 1455 1455 1455 1455
1460 1460 1460 1460 1460 1461 1461 1461 1461 1461 1461 1461 1461 1460 1460 1460 1460 1460 1460 1460 1459 1459 1459 1459 1459 1458 1458 1458 1458 1458 1458 1458 1458 1458 1458 1458 1458 1458 1458 1458 1458 1458 1458 1458 1458 1457 1457 1457 1457 1456 1456 1456 1455 1454 1454 1454 1454 1454 1454 1454 1454 1454 1454 1454 1453 1453 1453 1453 1453
1457 1457 1458 1458 1458 1458 1459 1459 1459 1459 1459 1459 1459 1459 1459 1459 1458 1458 1458 1458 1458 1457 1457 1457 1457 1456 1456 1456 1456 1456 1456 1456 1456 1456 1456 1456 1456 1456 1456 1456 1456 1456 1456 1456 1456 1456 1455 1455 1455 1455 1454 1454 1453 1453 1452 1452 1452 1451 1451 1451 1452 1452 1452 1452 1451 1451 1451 1451 1451
1455 1456 1456 1456 1456 1456 1456 1457 1457 1457 1457 1457 1457 1457 1457 1457 1457 1456 1456 1456 1456 1456 1455 1455 1455 1454 1454 1454 1454 1454 1454 1454 1454 1454 1454 1454 1454 1454 1454 1454 1454 1455 1455 1455 1454 1454 1454 1453 1453 1453 1452 1452 1451 1451 1451 1450 1450 1450 1450 1450 1450 1450 1450 1450 1450 1450 1450 1449 1449
1453 1454 1454 1454 1454 1455 1455 1455 1455 1455 1455 1455 1455 1455 1455 1455 1455 1455 1455 1454 1454 1454 1453 1453 1453 1452 1452 1452 1452 1451 1451 1451 1451 1451 1451 1451 1452 1452 1452 1452 1452 1453 1453 1452 1452 1452 1452 1451 1451 1451 1451 1450 1450 1449 1449 1449 1448 1448 1448 1448 1448 1448 1448 1448 1448 1448 1448 1447 1447
1452 1452 1452 1452 1452 1453 1453 1453 1453 1453 1453 1453 1453 1453 1453 1453 1453 1453 1453 1452 1452 1452 1451 1451 1451 1451 1450 1450 1450 1450 1449 1449 1449 1449 1449 1449 1449 1449 1449 1450 1450 1451 1451 1451 1450 1450 1450 1450 1449 1449 1449 1448 1447 1447 1447 1447 1447 1446 1446 1446 1446 1446 1446 1446 1446 1446 1446 1446 1446
1450 1451 1451 1451 1451 1451 1451 1451 1451 1451 1451 1451 1452 1452 1452 1451 1451 1451 1451 1451 1450 1450 1450 1450 1449 1449 1449 1448 1448 1448 1448 1447 1447 1447 1447 1447 1447 1447 1447 1447 1448 1449 1449 1448 1448 1448 1448 1447 1447 1447 1446 1446 1446 1445 1445 1445 1445 1445 1445 1445 1444 1444 1444 1444 1444 1444 1444 1444 1444
1449 1449 1449 1449 1450 1450 1450 1450 1450 1450 1450 1450 1450 1450 1450 1450 1450 1449 1449 1449 1449 1448 1448 1448 1448 1447 1447 1447 1446 1446 1446 1446 1445 1445 1445 1445 1445 1445 1445 1445 1446 1446 1446 1446 1446 1446 1446 1446 1445 1445 1445 1444 1444 1443 1443 1443 1443 1443 1443 1443 1443 1442 1442 1442 1442 1442 1442 1442 1442
1447 1448 1448 1448 1448 1448 1448 1448 1448 1448 1448 1448 1448 1448 1448 1448 1448 1448 1447 1447 1447 1447 1446 1446 1446 1446 1445 1445 1445 1444 1444 1444 1443 1443 1443 1443 1442 1442 1443 1443 1444 1444 1444 1444 1444 1444 1443 1443 1443 1443 1442 1442 1441 1441 1441 1441 1441 1441 1441 1441 1441 1441 1440 1440 1440 1440 1440 1440 1440
1446 1446 1446 1446 1446 1446 1446 1446 1446 1446 1446 1446 1446 1446 1446 1446 1446 1446 1446 1446 1446 1445 1445 1445 1445 1444 1444 1443 1443 1442 1442 1442 1442 1441 1441 1441 1441 1441 1441 1441 1441 1442 1442 1442 1441 1441 1441 1441 1441 1441 1440 1440 1439 1439 1439 1439 1439 1439 1439 1439 1439 1438 1438 1438 1438 1438 1438 1438 1438
1445 1445 1445 1445 1445 1445 1445 1445 1445 1445 1445 1445 1445 1445 1445 1445 1445 1444 1444 1444 1444 1444 1443 1443 1443 1442 1442 1441 1441 1441 1441 1440 1440 1440 1440 1439 1439 1439 1439 1439 1439 1439 1440 1440 1439 1439 1439 1439 1439 1438 1438 1437 1437 1437 1437 1437 1437 1436 1437 1437 1437 1436 1436 1436 1436 1436 1436 1436 1436
1444 1444 1444 1444 1444 1444 1444 1444 1444 1444 1444 1444 1444 1443 1443 1443 1443 1443 1443 1442 1442 1442 1442 1441 1441 1441 1440 1440 1439 1439 1439 1438 1438 1438 1438 1437 1437 1437 1437 1437 1437 1437 1437 1437 1437 1437 1436 1436 1436 1436 1436 1435 1435 1435 1435 1435 1434 1434 1434 1435 1435 1434 1434 1434 1434 1434 1434 1434 1434
Wind_Speed
12 13 13 13 13 14 14 14 14 14 14 14 14 14 14 14 14 14 15 15 15 15 15 15 14 14 14 13 13 13 13 13 13 14 14 14 14 14 14 15 15 15 16 16 17 17 17 17 17 16 16 16 16 16 16 16 15 15 15 15 15 15 15 14 14 14 14 14 14
12 12 13 13 13 14 14 14 14 14 14 14 14 14 14 14 14 14 14 14 14 14 14 14 14 14 14 13 13 13 13 14 14 15 15 15 15 16 16 16 16 16 16 17 17 18 18 17 17 17 16 16 16 16 16 16 15 15 15 15 15 15 15 15 14 14 14 14 14
12 12 13 13 13 13 14 14 14 14 14 14 13 13 13 14 14 14 14 14 14 14 14 14 14 14 14 14 14 14 14 14 15 15 16 16 16 16 16 17 17 16 16 17 17 18 18 17 17 17 16 16 16 16 16 16 15 15 15 15 15 15 15 15 15 15 15 15 15
12 12 12 12 13 13 13 14 14 14 14 14 13 13 13 13 13 14 14 14 14 14 14 14 14 14 14 14 14 14 14 15 15 15 16 16 16 17 17 17 17 16 16 17 17 17 17 17 17 17 16 16 16 16 16 15 15 15 15 15 15 15 15 15 15 15 15 15 15
11 12 12 12 12 13 13 13 14 14 14 14 14 13 13 13 14 14 14 14 14 14 14 14 14 14 14 14 14 14 14 15 15 15 16 16 16 16 17 16 16 16 16 16 17 17 17 17 17 16 16 16 16 15 15 15 15 15 15 15 15 15 16 16 16 15 15 16 16
11 11 12 12 12 13 13 13 13 14 14 14 14 13 13 14 14 14 14 14 14 14 14 14 14 14 14 15 15 15 15 15 15 15 15 16 16 16 16 16 16 16 16 16 16 17 17 17 16 16 16 15 15 15 15 15 15 15 15 15 16 16 16 16 16 16 16 16 16
11 11 11 12 12 13 13 13 13 14 14 14 14 14 14 14 14 14 14 14 14 15 15 15 15 15 15 15 15 15 15 15 15 15 15 15 16 16 16 16 16 16 16 16 16 16 17 17 17 16 16 15 15 15 15 15 15 15 16 16 16 16 16 17 17 17 17 17 17
11 11 12 12 12 13 13 13 13 14 14 14 14 14 14 14 14 14 14 14 15 15 15 15 15 15 15 15 15 15 15 15 15 15 15 16 16 16 17 17 17 17 16 16 16 16 17 17 17 17 16 16 16 15 15 15 16 16 16 16 17 17 17 17 17 17 18 18 18
11 12 12 13 13 13 13 13 14 14 14 14 14 14 14 14 14 15 15 15 15 15 15 15 15 16 16 16 16 16 16 16 16 16 16 16 16 16 17 17 17 17 17 17 16 16 16 17 17 17 17 16 16 16 16 16 16 16 16 17 17 17 18 18 18 18 18 18 19
11 12 12 13 13 13 13 13 13 13 14 14 14 14 15 15 15 15 15 15 15 16 16 16 16 16 16 16 16 16 16 16 16 16 16 16 16 17 17 17 17 18 18 17 17 17 16 17 17 17 17 17 17 17 16 16 16 16 17 17 17 18 18 18 18 19 19 19 19
12 12 12 13 13 13 13 13 13 13 13 14 14 14 15 15 15 16 16 16 16 16 16 16 17 17 17 17 17 17 17 17 17 17 17 17 17 17 17 17 17 18 18 18 18 17 17 17 17 18 18 18 18 18 17 17 17 17 17 17 18 18 18 19 19 19 19 20 20
12 12 12 12 12 12 12 12 12 12 13 13 13 14 15 15 16 16 16 16 16 16 17 17 17 17 17 17 17 18 18 18 17 17 17 17 17 17 17 17 17 18 18 18 18 18 18 18 17 18 18 18 19 19 18 18 18 18 18 18 18 18 19 19 20 20 20 20 21
13 13 12 12 12 12 11 11 11 11 12 12 13 13 14 15 16 16 16 16 16 17 17 17 18 18 18 18 18 18 18 18 18 18 18 18 18 18 18 18 18 18 18 18 19 19 19 18 18 18 18 18 19 19 19 19 19 19 18 18 18 19 19 20 20 20 21 21 21
13 13 13 12 12 12 11 11 11 11 11 12 12 13 14 15 15 16 16 16 16 17 17 17 18 18 18 18 18 19 19 19 19 19 18 18 18 18 18 18 18 18 18 19 19 19 19 19 19 19 18 18 19 19 20 20 20 20 19 19 19 19 19 20 21 21 21 21 22
14 14 13 13 13 12 12 11 11 11 11 12 12 13 14 14 15 15 16 16 16 16 16 17 17 17 18 18 18 19 19 19 19 19 19 19 19 19 19 19 18 18 19 19 19 19 19 20 20 19 19 19 19 19 19 20 20 20 20 20 20 20 20 20 21 21 22 22 22
15 15 14 14 13 13 12 12 12 12 12 12 12 13 14 14 15 15 15 15 15 15 15 16 16 17 17 18 18 18 19 19 19 19 19 19 19 19 19 19 19 19 19 19 19 20 20 20 20 20 20 20 20 19 20 20 20 20 20 20 20 20 20 21 22 22 22 22 22
16 15 15 15 14 14 14 13 13 13 13 13 13 14 14 14 14 15 15 14 14 14 15 15 15 16 17 17 18 18 18 18 18 18 19 19 19 19 19 19 19 19 19 19 20 20 20 20 20 20 20 20 20 20 20 20 20 20 20 20 20 20 21 21 22 22 22 22 22
17 17 16 16 15 15 15 14 14 14 14 14 14 14 14 14 15 15 15 15 15 15 15 15 15 16 16 17 17 17 17 18 18 18 19 19 19 19 19 19 19 19 19 20 20 20 20 20 20 20 20 21 20 20 20 20 20 20 20 20 20 21 21 21 22 22 22 22 22
18 18 17 17 16 16 16 16 16 16 16 16 16 16 15 15 15 15 15 15 15 15 15 15 15 16 16 16 16 17 17 17 18 18 18 19 19 19 19 19 19 19 20 20 20 20 20 20 21 21 21 21 21 21 21 21 21 21 21 21 21 21 21 22 22 22 22 22 22
19 19 18 18 17 17 17 17 17 18 18 18 18 17 17 16 16 16 16 16 17 17 17 16 16 16 16 16 16 17 17 17 17 17 18 18 19 19 19 19 19 19 20 20 20 21 21 21 21 21 21 21 21 21 21 21 21 21 21 21 21 21 22 22 22 22 23 23 22
20 19 19 19 19 19 19 19 20 20 20 20 20 19 19 18 18 17 17 17 18 18 18 18 17 17 17 17 17 17 17 17 17 17 17 18 18 18 19 19 19 19 19 20 20 20 21 21 21 21 21 21 21 21 21 21 21 21 21 21 21 22 22 22 22 23 23 23 22
21 20 20 21 21 21 21 21 22 22 22 22 21 21 21 20 20 19 19 19 20 20 20 19 19 18 18 18 18 18 18 18 18 18 17 17 18 18 18 19 19 19 19 19 19 20 20 20 21 21 21 21 22 21 22 22 22 22 22 22 22 22 22 22 23 23 23 23 22
21 21 22 22 22 23 23 23 24 24 24 24 23 23 23 22 22 22 22 22 22 22 21 21 21 20 20 20 19 19 19 19 19 18 18 18 18 18 18 19 19 19 19 19 19 19 20 20 20 21 21 21 22 22 22 22 22 22 22 22 22 22 22 23 23 23 23 23 23
21 22 22 23 23 24 24 24 25 25 25 25 25 25 25 25 25 25 24 24 24 24 23 23 22 22 22 22 21 21 20 20 19 19 19 19 18 18 19 19 19 19 19 19 19 19 19 20 20 20 21 21 21 22 22 22 22 22 22 22 22 23 23 23 23 23 23 23 23
21 22 22 23 23 23 24 24 24 25 25 25 26 26 26 26 27 27 27 27 26 26 26 25 25 24 24 24 23 22 22 21 21 20 20 20 19 19 19 20 19 19 19 19 19 19 19 20 20 20 20 21 21 21 22 22 22 22 22 23 23 23 23 23 23 23 23 23 23
22 22 22 23 23 23 23 24 24 24 24 25 25 26 26 27 27 28 28 28 28 28 28 27 27 27 26 26 25 24 24 23 22 22 21 21 21 21 20 20 20 20 19 19 19 19 20 20 20 21 21 21 21 21 21 21 22 22 23 23 23 23 23 23 23 23 23 23 23
22 22 22 23 23 23 23 24 24 24 24 24 25 25 26 26 27 28 28 29 29 29 29 29 29 29 28 28 27 26 25 24 24 23 23 22 22 22 21 21 21 20 20 19 19 20 20 20 21 22 22 22 22 21 21 21 21 22 23 23 23 24 23 23 23 23 23 23 23
23 23 23 23 23 23 24 24 24 24 24 24 24 25 25 26 26 27 27 28 29 29 30 30 30 30 30 30 29 28 27 26 25 25 24 24 23 23 22 22 21 21 20 20 20 20 20 21 21 22 23 23 23 23 22 21 21 22 22 23 24 24 24 23 23 23 23 23 23
23 23 23 24 24 24 24 24 24 24 24 24 24 25 25 26 26 26 27 27 28 28 29 30 30 30 31 31 30 30 29 28 27 26 26 25 24 24 23 23 22 21 21 21 21 21 21 21 21 22 22 23 24 24 24 23 22 22 22 23 23 23 24 23 23 23 23 23 23
23 23 24 24 24 24 24 24 24 24 24 24 25 25 25 26 26 26 26 27 27 27 28 29 29 30 30 30 31 31 30 30 29 28 27 26 26 25 24 23 23 22 22 22 21 21 21 21 21 22 22 23 24 25 25 24 24 23 23 23 23 23 23 23 23 23 23 23 23
23 23 23 23 23 22 22 22 23 23 24 24 24 25 25 25 25 26 26 26 26 27 27 28 28 29 29 29 30 31 31 31 30 29 28 27 27 26 25 25 24 23 23 22 22 22 22 22 22 22 22 23 24 24 25 25 25 25 24 24 23 23 23 23 23 23 23 22 22
21 21 21 21 21 21 21 21 21 22 22 23 23 23 24 24 24 25 25 25 26 26 26 26 27 27 27 28 28 29 30 30 30 30 30 29 28 27 26 26 25 24 23 23 22 22 22 22 22 22 23 23 24 24 25 25 26 26 25 25 24 24 23 23 23 22 22 22 22
20 20 20 20 19 19 19 19 20 20 20 20 21 21 21 22 22 23 23 24 24 24 25 25 25 26 26 26 27 27 28 28 29 30 30 30 29 28 27 27 26 25 24 23 23 23 22 22 22 23 23 23 24 24 25 25 26 26 26 26 25 25 24 23 23 22 22 22 22
19 19 19 18 18 18 18 18 18 18 18 19 19 19 19 20 20 21 21 22 22 23 23 24 24 24 25 25 25 25 26 26 26 27 28 29 29 29 28 28 27 26 25 24 24 23 23 23 23 23 23 24 24 25 25 25 26 26 26 26 26 25 25 24 23 23 23 22 22
17 18 18 17 17 17 17 17 17 17 17 17 17 18 18 18 19 19 20 20 21 22 22 23 23 24 24 24 24 24 24 24 25 25 26 27 28 29 29 29 28 27 26 25 25 24 24 24 23 23 24 24 25 25 26 26 26 26 26 26 26 26 26 25 24 23 23 23 23
16 16 16 16 16 16 16 16 17 17 17 17 17 17 18 18 18 19 19 20 21 21 21 22 22 23 23 23 23 23 24 24 24 24 25 26 27 28 29 29 28 27 26 26 26 25 25 24 24 24 24 25 25 26 26 26 26 26 26 26 26 26 26 26 25 24 24 23 23
14 14 15 15 15 15 16 16 16 16 17 17 17 17 18 18 19 19 20 20 21 21 21 22 22 22 22 23 23 23 23 23 24 24 25 25 26 27 27 28 28 27 27 26 26 26 25 25 25 25 25 25 26 26 26 26 26 26 26 26 26 26 26 26 26 25 24 24 23
12 12 12 13 13 14 14 15 15 16 16 16 16 17 17 18 19 19 20 20 21 21 21 21 22 22 22 22 23 23 23 23 23 24 24 25 25 26 26 27 27 27 27 27 26 26 26 26 25 25 25 26 26 26 26 27 27 27 27 27 26 26 26 26 26 26 25 24 24
10 10 10 11 11 12 13 13 14 14 14 15 15 16 17 17 18 19 19 20 21 21 21 21 21 22 22 22 23 23 23 23 23 24 24 24 25 25 26 26 27 27 26 27 27 27 26 26 26 25 26 26 26 27 27 27 27 27 27 27 27 27 27 27 26 26 25 25 24
9 9 9 10 10 10 11 11 12 12 13 13 14 15 15 16 17 17 18 19 20 20 21 21 21 22 22 23 23 23 23 23 23 24 24 24 25 25 26 26 26 26 26 26 27 27 27 26 26 26 26 26 27 27 27 27 28 28 27 27 27 27 27 27 26 26 26 25 24
9 9 9 9 10 10 10 10 11 11 12 12 13 13 14 15 15 16 17 18 19 19 20 21 21 21 22 23 23 23 23 24 24 24 24 25 25 25 26 26 27 27 27 27 27 27 27 27 27 26 26 27 27 27 28 28 28 28 28 28 27 27 27 27 27 26 26 25 24
Wind_Direction
279 280 281 281 281 281 281 280 280 280 280 280 279 279 279 279 278 278 278 278 278 278 279 279 280 280 280 280 280 279 279 280 280 281 282 283 283 284 285 285 286 286 287 287 287 287 286 286 286 286 286 286 286 286 285 285 284 283 281 280 279 279 279 280 281 283 285 286 287
278 278 279 279 279 279 279 279 278 278 278 278 278 278 277 277 277 277 277 277 277 277 278 278 279 279 280 281 281 281 282 283 283 284 284 285 285 286 287 287 287 287 287 287 287 287 287 287 287 287 287 287 287 287 286 285 284 283 281 280 279 279 279 280 281 283 285 286 287
275 276 276 277 277 276 276 276 276 276 275 275 275 274 274 274 274 274 274 274 275 275 275 276 277 278 279 280 281 282 283 283 284 285 286 286 287 287 288 288 288 288 287 287 287 286 287 287 287 287 287 287 287 287 286 285 284 283 282 281 280 280 281 281 282 284 286 287 288
274 274 274 274 273 273 272 272 273 273 273 272 272 271 270 270 270 270 271 271 272 272 273 273 274 276 277 278 279 280 282 283 284 285 286 287 287 288 288 288 288 288 287 287 286 286 286 286 286 287 287 287 287 286 286 286 285 284 283 282 281 281 282 283 284 285 287 288 289
275 274 274 273 272 271 270 270 270 270 271 271 270 269 268 267 267 267 267 268 269 270 271 271 272 273 275 276 277 279 281 282 283 284 285 287 287 288 289 288 288 288 287 287 286 286 286 286 286 286 286 286 286 285 285 285 284 284 283 282 282 282 283 284 285 286 287 289 290
277 276 275 274 273 271 270 270 269 269 269 270 269 268 267 266 265 264 265 265 266 268 269 270 271 272 273 275 276 278 279 281 282 283 284 286 287 288 288 288 288 288 287 287 287 286 286 285 285 285 285 285 284 284 284 284 284 283 283 283 282 283 284 285 286 288 288 289 290
277 277 276 274 273 271 270 270 269 269 269 268 267 267 266 265 264 264 264 264 265 266 267 268 269 271 272 273 275 276 278 279 280 282 283 285 286 287 287 287 288 288 287 287 287 286 286 286 285 284 284 283 283 283 283 282 282 282 282 283 283 283 284 286 287 288 289 290 291
275 274 273 272 272 270 269 268 268 267 266 266 265 264 264 264 264 264 264 264 265 265 266 267 269 270 271 272 274 275 276 277 279 280 282 283 284 286 286 287 287 287 287 287 287 287 286 286 285 285 284 283 282 282 282 282 282 282 282 283 283 284 285 286 287 288 289 290 290
271 270 270 270 270 269 268 267 266 265 264 263 263 263 263 263 263 263 264 264 264 265 266 267 268 269 270 271 272 273 275 276 277 279 280 281 283 284 285 286 286 287 287 286 286 286 286 286 286 285 285 283 283 282 281 281 281 281 282 283 284 285 285 286 287 287 288 289 290
265 266 267 268 268 268 268 267 267 266 264 263 262 262 263 263 263 263 263 263 264 265 266 267 267 268 269 270 271 272 273 274 275 276 278 279 280 281 282 284 285 285 286 286 285 285 285 285 285 285 285 284 283 282 281 281 281 281 282 283 283 284 285 285 286 286 287 287 288
263 264 266 267 268 269 270 270 269 268 266 265 264 264 264 264 264 264 264 264 265 266 267 267 267 268 269 270 270 271 272 273 274 274 275 276 277 278 279 280 282 283 284 284 285 284 284 284 284 285 285 284 284 283 282 281 281 281 281 282 283 284 285 285 285 285 286 286 287
261 262 265 267 268 269 270 270 270 269 268 266 265 265 265 265 265 265 265 266 267 267 267 268 268 269 270 270 271 271 272 272 273 273 274 275 275 276 277 278 279 280 281 283 283 284 284 283 283 283 283 284 284 283 282 282 281 281 281 281 282 283 283 284 284 284 285 285 286
258 260 262 264 266 267 267 268 268 267 267 266 265 265 265 266 266 266 266 267 267 267 268 268 270 270 271 271 272 272 272 273 273 273 274 274 274 275 275 276 277 278 279 280 281 282 282 282 282 282 282 282 282 282 282 282 281 281 281 281 281 281 282 283 283 284 285 285 286
255 257 259 260 261 263 263 264 264 265 265 264 264 264 264 265 266 267 268 268 268 268 268 269 270 271 272 272 272 273 273 273 273 273 273 274 274 274 274 275 275 276 277 278 279 280 281 281 281 281 280 280 280 281 281 282 282 282 282 282 282 282 282 283 283 284 285 285 286
252 254 255 256 257 258 259 260 261 261 262 262 262 263 264 265 267 268 269 270 270 270 270 271 272 273 273 273 273 273 273 274 274 274 274 274 274 274 274 274 274 275 276 277 277 278 279 280 280 280 280 279 279 279 279 280 281 281 282 282 282 283 283 283 283 284 284 285 286
249 250 252 253 254 255 256 257 258 259 260 261 261 262 263 265 267 269 271 272 273 273 273 274 274 274 274 274 274 275 275 275 275 275 275 274 274 274 274 274 274 275 275 275 276 277 278 278 279 279 279 279 279 278 278 279 280 280 281 281 282 282 282 282 283 283 284 285 285
247 248 249 250 252 253 254 256 257 258 259 260 261 262 263 265 268 270 272 274 275 276 276 276 276 276 276 276 276 276 277 277 277 277 277 276 276 276 276 276 276 276 275 276 276 276 277 277 278 278 279 279 279 279 279 279 279 279 279 280 280 281 281 281 282 283 283 284 285
246 246 247 249 250 252 254 255 257 258 259 260 261 262 263 265 268 270 272 274 275 276 277 277 276 276 277 278 278 279 279 280 280 280 280 279 279 279 279 279 278 278 277 277 276 277 277 277 278 278 279 279 279 279 279 279 279 279 279 279 279 279 280 280 281 282 282 284 284
246 246 247 248 250 251 253 255 256 257 258 259 260 261 262 264 266 268 270 272 273 274 274 274 275 276 277 278 279 280 280 281 282 282 282 282 282 282 282 282 281 280 280 279 279 279 278 278 279 279 279 279 279 279 279 279 279 279 279 279 279 279 279 279 280 281 282 282 283
247 247 247 249 250 251 252 253 255 256 257 258 259 261 262 263 264 266 267 269 271 271 271 272 273 274 275 276 277 278 280 281 282 283 284 284 285 285 285 285 284 283 282 282 282 281 281 281 280 280 280 280 279 279 279 279 279 279 279 279 279 279 279 279 280 280 281 282 282
249 249 250 250 251 251 252 253 254 255 257 258 259 261 262 263 263 264 266 267 268 269 270 271 272 273 273 274 275 276 277 279 280 282 283 284 285 286 287 287 286 286 285 285 284 284 284 283 283 282 281 281 280 280 280 280 279 279 279 279 279 279 279 279 280 280 281 281 282
253 253 253 253 252 252 253 253 254 256 257 259 261 262 263 264 264 265 265 265 267 268 270 271 271 272 272 273 274 275 276 277 278 280 281 283 284 285 286 286 287 287 287 287 286 286 285 285 284 284 283 282 282 282 281 281 280 280 279 279 279 279 279 279 279 280 281 281 281
258 257 257 256 255 255 255 256 256 258 259 261 262 263 264 265 265 265 265 265 266 268 269 270 271 272 272 272 273 274 275 276 278 279 280 281 282 283 284 284 285 286 286 286 286 286 286 285 284 284 284 283 283 282 282 281 281 280 280 279 279 279 279 279 280 280 281 281 281
261 261 260 260 259 259 259 260 260 261 262 263 264 264 265 265 266 266 266 266 267 268 269 269 270 271 271 272 272 273 274 276 277 278 279 280 281 281 281 282 283 284 285 286 286 286 285 284 284 283 283 283 282 282 282 282 281 281 280 280 280 279 280 280 280 281 281 281 281
263 263 263 263 264 264 264 264 265 265 265 266 266 266 266 266 267 267 267 267 268 268 268 268 268 269 270 271 272 273 273 275 276 277 278 278 279 279 280 280 282 283 284 285 285 285 284 284 283 282 281 281 280 281 281 281 281 281 281 281 280 280 280 281 281 281 281 282 282
264 264 265 266 266 267 267 267 268 268 268 268 268 268 268 268 267 268 268 268 268 267 267 267 267 268 268 269 270 271 272 273 274 274 275 276 276 277 278 279 281 282 283 284 285 284 284 283 283 282 281 280 279 278 279 279 280 280 281 281 281 281 281 282 282 282 282 282 282
264 265 265 266 267 267 268 268 269 269 269 269 269 269 269 268 268 268 268 269 268 268 268 267 267 267 267 268 269 269 270 271 271 272 272 273 274 275 276 277 279 281 282 283 283 283 282 282 282 282 282 281 280 279 278 277 278 279 279 280 281 281 282 282 283 283 283 283 283
263 264 264 264 265 266 267 268 268 268 269 269 269 269 269 269 269 270 270 270 270 270 269 268 268 267 267 267 267 267 267 268 268 269 270 270 271 272 273 275 277 278 279 280 280 280 280 280 281 281 282 283 282 281 280 279 278 277 278 279 280 281 282 283 283 283 283 283 283
262 263 263 263 264 265 266 267 267 268 268 268 268 268 269 270 271 272 272 272 272 271 271 270 269 268 268 267 267 266 265 265 266 266 267 268 269 270 271 272 274 275 276 277 277 277 278 278 278 279 280 281 282 283 282 281 279 278 277 278 279 280 281 282 282 282 282 282 282
262 263 263 264 264 265 266 266 267 267 267 267 268 269 270 271 272 273 273 273 273 273 272 272 271 271 271 270 269 267 266 265 265 265 265 266 267 268 269 270 271 272 273 274 275 276 276 276 276 277 277 278 280 281 282 282 281 279 278 277 277 278 279 280 280 281 281 281 280
263 264 264 265 265 266 267 267 267 267 268 269 270 271 272 273 273 274 274 274 275 275 275 275 275 275 275 275 273 271 269 267 266 265 264 265 265 266 267 268 269 270 271 272 273 274 274 275 275 275 276 276 277 278 280 281 281 281 280 278 277 277 277 278 279 280 281 281 280
264 264 265 266 267 267 268 268 269 269 270 272 273 274 275 276 276 276 277 277 277 277 277 278 278 279 279 278 277 276 274 272 269 267 265 265 265 266 267 268 269 269 270 271 271 272 272 273 273 273 274 274 275 276 277 279 280 280 280 280 279 278 278 278 279 280 281 282 282
264 264 265 266 268 268 269 270 271 273 274 276 277 278 279 280 280 280 279 279 279 279 279 280 280 280 280 281 280 280 279 277 274 271 268 266 266 265 266 267 268 269 269 270 270 270 271 271 271 272 272 273 273 274 275 276 277 278 279 280 280 280 279 279 279 280 281 282 282
263 264 266 267 268 270 271 272 274 276 278 279 281 282 283 283 283 282 281 280 280 280 280 281 281 282 282 283 283 283 282 282 280 276 273 269 267 266 265 266 267 268 269 269 269 270 270 270 270 271 271 271 272 272 273 274 275 276 277 279 280 280 280 280 279 279 280 280 281
263 264 266 268 269 271 272 274 275 277 279 281 283 284 284 284 284 283 282 281 281 281 282 283 283 284 285 285 286 286 285 285 283 280 276 272 268 266 265 265 266 267 268 268 269 269 269 269 270 270 270 270 270 271 272 273 274 274 276 277 278 279 279 279 279 279 279 279 280
263 264 266 268 269 271 272 273 275 277 278 280 282 283 283 283 283 283 282 282 283 283 284 284 285 285 286 287 287 288 287 286 284 282 279 275 271 269 267 266 266 267 267 268 268 269 269 269 269 269 269 269 270 270 271 272 273 274 275 276 276 277 278 279 279 279 279 279 278
263 265 266 268 269 271 272 273 274 275 277 279 280 281 281 281 281 282 282 283 284 285 286 286 287 287 288 288 288 288 288 287 286 284 282 279 276 273 270 268 267 267 267 267 268 268 268 268 268 268 268 268 269 270 271 272 272 273 274 275 275 276 277 278 278 278 278 278 278
264 265 267 268 269 270 271 272 273 275 276 278 278 279 279 280 281 282 282 284 285 286 287 288 289 289 290 290 289 289 289 288 287 286 284 282 279 276 273 271 269 268 267 267 267 267 268 268 268 268 268 268 268 269 270 271 272 273 274 274 275 276 276 276 277 277 278 278 278
265 266 267 268 270 271 272 273 274 276 277 278 279 279 280 281 282 283 284 285 286 287 288 289 290 290 290 290 290 290 290 289 288 287 286 284 281 278 276 273 271 269 268 266 266 266 267 267 267 267 267 267 268 269 269 270 271 272 273 274 275 275 275 276 276 277 277 278 278
265 267 268 270 271 272 273 275 277 278 280 281 282 283 284 285 286 286 287 287 288 289 289 290 290 290 290 290 290 290 291 290 290 288 287 285 282 280 277 276 274 271 269 267 266 266 266 266 266 265 266 266 267 268 269 269 271 272 273 273 274 275 275 276 277 277 277 278 277
266 268 270 271 273 275 277 279 282 284 285 287 288 289 290 291 291 291 291 291 291 291 291 291 291 291 291 291 291 291 291 291 291 289 288 285 283 281 279 277 276 273 270 268 266 266 265 265 265 265 265 265 266 267 267 268 269 271 272 273 274 275 275 276 277 277 277 277 277